星链-5952 (STARLINK-5952 )

导读

STARLINK-5952是美国SpaceX公司星链(Starlink)星座中的一颗卫星,于2023年6月12日发射升空。作为星链第二代组网的组成部分,该卫星属于低轨互联网通信卫星,运行在近地轨道,主要为全球提供高速宽带互联网服务,尤其覆盖偏远地区、海洋等地面网络难以抵达的区域,是SpaceX构建全球卫星互联网星座的重要一环。

Basic Information
目录编号:
56923
目录名称:
STARLINK-5952
国际标识:
2023-083AZ
轨道中心:
EARTH
卫星名称:
星链-5952
卫星全名:
星链-5952 (STARLINK-5952 )
卫星状态:
在轨 (已飞行1187 天)
发射日期:
2023-06-12 UTC
国别 :
美国 (US)
星等 :
--
This satellite is enrolled in the Space Conjunction Data Service (SCDS) and the current flight risk assessment level is: No High Risk
Orbit Information
数据来源 国际轨道数据
星历时间: 2026-09-11T08:27:00+0800
14小时前
查看轨道信息
半长轴: 6861.213km
偏心率: 0.0000591
轨道倾角: 43.002°
近地点辐角 261.586°
升交点赤经 103.878°
平近点角 98.492°
近地点: 482.67km
远地点: 483.482km
周期: 94.267分钟
每日圈数: 15.275713
Detailed Information
固有亮度:
5
最大亮度:
2.4
卫星平台:
Starlink v1.5
覆盖范围:
全球
运营商:
太空探索技术公司
运营商所在国:
美国
制造商(研发单位):
太空探索技术公司
制造商所在国:
美国
使用方式:
暂无
Satellite Introduction
星链(Starlink)计划是由太空探索技术公司(SpaceX)提出的一个巨型低轨卫星互联网星座项目,计划在2019年至2024年间在太空搭建由约1.2万颗卫星组成的“星链”网络,其中1584颗将部署在地球上空550千米处的近地轨道,并从2020年开始工作。该卫星仍在工作。
2D Orbit Map
3D Orbit Map
Orbit Altitude Analysis Chart
Orbit Inclination Analysis Chart
Orbit Comprehensive Analysis Chart
View Comprehensive Chart
Conjunction Data List
Event ID Objects TCA Miss Dist (km) Collision Risk Probability Collision Risk Index (CRI) Action
CDM_260913-184905-692306-679721
2026-09-13T
18:49:21+0000
0.645 km
远距离
4.52389E-5 中风险 0.68
CDM_260913-194305-692306-397921
2026-09-13T
19:43:11+0000
1.153 km
极远距离
1.079777E-5 中风险 0.56
CDM_260913-145305-692306-679721
2026-09-13T
14:53:59+0000
1.023 km
极远距离
9.871566E-6 低风险 0.55
CDM_260913-205805-692306-399421
2026-09-13T
20:58:57+0000
1.438 km
极远距离
4.24687E-6 低风险 0.48
CDM_260913-192405-692306-399421
2026-09-13T
19:24:47+0000
1.575 km
极远距离
3.189409E-6 低风险 0.45
CDM_260912-110504-439005-692327
ICEYE-X4 (44390)
2026-09-12T
11:05:29+0000
2.782 km
极远距离
1.444981E-6 低风险 0.38
CDM_260913-162805-692306-679721
2026-09-13T
16:28:08+0000
2.890 km
极远距离
6.691177E-7 极低风险 0.32
Miss Distance Evolution Trend with All Objects
Collision Probability Evolution Trend with All Objects